Regional Weather Roundup
Issued by NWS

Home | Current Version | Previous Version | Graphics & Text | Print | Product List | Glossary Off
Versions: 1 2 3 4 5 6 7 8 9 10 11 12 13 14 15 16 17 18 19 20 21 22 23 24 25 26 27 28 29 30 31 32 33 34 35 36 37 38 39 40 41 42 43 44 45 46 47 48 49 50

000
ASUS43 KTOP 220459
RWRKS

WEATHER ROUNDUP FOR KANSAS
NATIONAL WEATHER SERVICE GOODLAND KS
1200 AM CDT TUE AUG 22 2017

NOTE:  "FAIR" INDICATES FEW OR NO CLOUDS BELOW 12,000 FEET WITH NO
SIGNIFICANT WEATHER AND/OR OBSTRUCTIONS TO VISIBILITY.

KSZ001>006-013>018-027>032-041>047-220600-
NORTHWEST KANSAS

CITY           SKY/WX    TMP DP  RH WIND       PRES   REMARKS
GOODLAND       CLEAR     70  66  87 N14       30.13R
HAYS           CLEAR     75  66  73 SW7       29.98R
HILL CITY      MOCLDY    76  68  76 N16G23    30.02R
RUSSELL        CLEAR     73  65  75 S6        29.96R
$$

KSZ061>065-074>080-084>089-220600-
SOUTHWEST KANSAS

CITY           SKY/WX    TMP DP  RH WIND       PRES   REMARKS
DODGE CITY     CLEAR     76  66  71 SW10      30.03S
ELKHART          N/A     70  67  90 S7          N/A
GARDEN CITY    CLEAR     71  66  84 SW6       30.04R
GREAT BEND     CLEAR     73  68  84 S6        29.98S
$$

KSZ066>073-081>083-090>101-220600-
SOUTHEAST KANSAS

CITY           SKY/WX    TMP DP  RH WIND       PRES   REMARKS
CHANUTE        CLOUDY    82  74  76 S16G23    29.99F
COFFEYVILLE    CLOUDY    82  74  76 S16       30.00S
HUTCHINSON     MOCLDY    77  71  82 SW8       29.96F
MEDICINE LODGE   N/A     79  70  74 S8        29.99R
NEWTON         CLOUDY    79  70  74 SW8       29.98S
PARSONS        PTCLDY    82  74  76 S9        30.01S
WICHITA INTL   CLOUDY    79  72  79 S10       29.97S
WICHITA JABRA  CLOUDY    77  73  87 S10       29.97F
WICHITA MCCONL CLOUDY    78  69  75 SW15      29.98S
WINFIELD       CLOUDY    81  71  71 S13       30.00S
$$

KSZ007>012-019>026-033>040-048>060-102>105-220600-
NORTHEAST KANSAS

CITY           SKY/WX    TMP DP  RH WIND       PRES   REMARKS
CONCORDIA      CLEAR     75  71  87 W5        29.93F
LAWRENCE       TSTM      71  71 100 VRB3      29.98R
MANHATTAN      PTCLDY    74  73  97 E6        29.93F
OLATHE IND     TSTM      70  69  97 NE9       30.01F FOG
OLATHE EXE     TSTM      68  68 100 SE9       30.01R FOG
SALINA         PTCLDY    81  70  69 SW8       29.93F
TOPEKA BILLARD CLOUDY    73  73 100 NE12      29.97R
TOPEKA FORBES  CLOUDY    72  71  97 NE7       29.96F
$$



USA.gov is the U.S. government's official web portal to all federal, state and local government web resources and services.